Location: Del Amo
(33.8464°N, 118.2104°W)
Time: 08:53:44
(UTC+00:00)

Vanguard 1 Rocket - Pass Details

Date: 18 September 2024
Orbit: 650 x 4218 km, 34.3° (Epoch: 09 October)

Event Time Altitude Azimuth Distance (km) Brightness Sun altitude
Exits shadow 13:41:05 - 275° (W) 6,082 10.9 -0.3°
Rises 13:41:06 0° 275° (W) 6,080 10.9 -0.3°
Reaches altitude 10° 13:44:22 10° 276° (W) 5,437 10.7 0.4°
Maximum altitude 14:03:14 89° 188° (S) 3,867 10.7 4.3°
Drops below altitude 10° 14:30:04 10° 103° (ESE) 7,253 14.6 9.8°
Sets 14:35:18 0° 104° (ESE) 8,074 14.3 10.9°
